Content
SEND FEEDBACK

Daily
Averages
Monthly
Summary
United States of America

PYGA BEACH, GUAM


Home > North America > United States > Guam
Elevation: 20 feet     Latitude: 13 17N     Longitude: 144 39E

WEATHER
 
SELECT A DAY
Number of Records: 342,166;   Date Range: 1/1/95 - 8/12/14
 
SHARE

PRINT THIS DATA

[ ← Previous Day ]
WEATHER ALMANAC - APRIL 20, 2013
[ Next Day → ]
[ °C ]   °F
Weather ElementAverageHighLow
Temperature79.2 °F84.2 °F (3:55 pm)76.3 °F (3:55 am)
Dewpoint73.8 °F75.2 °F (1:23 am)70.9 °F (3:55 pm)
Humidity83.7 %94 % (7:56 am)64 % (3:55 pm)
Barometer29.86 in29.90 in (8:55 am)29.80 in (2:55 pm)
Wind Speed8.3 mph13.8 mph (1:55 pm)
Wind Gust19.6 mph (7:49 am)
Weather ElementAverage
Visibility8.4 mi
Wind DirectionESE (98.2 °)

Weather ElementTotal
Precipitation0.20 in
Cooling Degree Days15.3 (Base 65)
Growing Degree Days30.3 (Base 50)
Averaged from 55 records on April 20, 2013
WEATHER CONDITIONS BREAKOUT
WIND DIRECTION BREAKOUT
WEATHER BY HOUR - APRIL 20, 2013
[ °C ]   °F
Local TimeTemperatureDewpointHumidityBarometerVisibilityWind DirectionWind SpeedGust SpeedPrecipitationEventsConditions
12:22 AM78.8 °F73.4 °F83 %29.87 in10.0 miESE (110°)8.1 mphMostly Cloudy
12:32 AM78.8 °F73.4 °F83 %29.86 in10.0 miESE (110°)8.1 mphMostly Cloudy
12:35 AM78.8 °F73.4 °F83 %29.86 in10.0 miESE (110°)6.9 mphMostly Cloudy
12:55 AM78.8 °F73.6 °F84 %29.86 in10.0 miESE (110°)6.9 mphScattered Clouds
1:23 AM78.8 °F75.2 °F89 %29.86 in10.0 miEast (100°)5.8 mphMostly Cloudy
1:26 AM78.8 °F75.2 °F89 %29.86 in10.0 miEast (100°)8.1 mphMostly Cloudy
1:55 AM78.6 °F73.9 °F85 %29.85 in10.0 miEast (100°)8.1 mphScattered Clouds
2:04 AM78.8 °F75.2 °F89 %29.85 in10.0 miEast (90°)8.1 mphMostly Cloudy
2:23 AM78.8 °F73.4 °F83 %29.85 in10.0 miEast (90°)10.4 mphRainLight Rain
2:29 AM77.0 °F73.4 °F89 %29.85 in4.0 miEast (90°)10.4 mphRainHeavy Rain
2:34 AM77.0 °F73.4 °F89 %29.85 in3.0 miEast (80°)9.2 mphRainLight Rain
2:50 AM77.0 °F73.4 °F89 %29.84 in10.0 miESE (110°)6.9 mphMostly Cloudy
2:55 AM76.5 °F73.4 °F90 %29.84 in10.0 miESE (120°)6.9 mph0.05 inMostly Cloudy
3:55 AM76.3 °F73.6 °F91 %29.84 in10.0 miSSE (150°)9.2 mphClear
4:55 AM76.3 °F72.5 °F88 %29.85 in10.0 miSSE (150°)6.9 mphMostly Cloudy
5:34 AM77.0 °F73.4 °F89 %29.85 in10.0 miESE (120°)5.8 mphOvercast
5:37 AM77.0 °F73.4 °F89 %29.85 in10.0 miESE (110°)5.8 mphOvercast
5:55 AM77.4 °F74.3 °F90 %29.85 in10.0 miESE (110°)5.8 mphOvercast
6:55 AM78.3 °F73.6 °F85 %29.87 in10.0 miSSE (150°)5.8 mphMostly Cloudy
7:49 AM78.8 °F73.4 °F83 %29.89 in2.0 miSouth (170°)12.7 mph19.6 mphHaze
7:50 AM78.8 °F73.4 °F83 %29.89 in1.5 miSouth (180°)10.4 mph19.6 mphRainHeavy Rain
7:52 AM78.8 °F73.4 °F83 %29.89 in1.2 miSSE (160°)11.5 mph19.6 mphRainHeavy Rain
7:55 AM77.5 °F74.5 °F90 %29.89 in1.2 miSSE (150°)8.1 mph19.6 mph0.14 inRainHeavy Rain
7:56 AM77.0 °F75.2 °F94 %29.89 in1.2 miSE (140°)9.2 mph19.6 mphRainRain
7:57 AM77.0 °F75.2 °F94 %29.89 in1.2 miSE (130°)10.4 mph19.6 mphRainLight Rain
7:58 AM77.0 °F75.2 °F94 %29.89 in1.5 miSE (130°)11.5 mph19.6 mphRainLight Rain
7:59 AM78.8 °F75.2 °F89 %29.89 in2.5 miSE (130°)11.5 mphRainLight Rain
8:00 AM78.8 °F75.2 °F89 %29.89 in3.0 miESE (120°)12.7 mphRainLight Rain
8:05 AM78.8 °F75.2 °F89 %29.89 in9.0 miESE (120°)12.7 mphMostly Cloudy
8:55 AM81.3 °F73.4 °F77 %29.90 in10.0 miSE (130°)6.9 mph0.01 inMostly Cloudy
9:11 AM82.4 °F73.4 °F74 %29.90 in10.0 miESE (120°)5.8 mphLight Drizzle
9:21 AM82.4 °F71.6 °F70 %29.90 in10.0 miESE (120°)6.9 mphScattered Clouds
9:55 AM83.1 °F71.2 °F67 %29.90 in10.0 miESE (120°)6.9 mph0.00 inMostly Cloudy
10:55 AM83.5 °F72.9 °F70 %29.89 in10.0 miEast (90°)9.2 mphMostly Cloudy
11:55 AM83.7 °F74.7 °F74 %29.87 in10.0 miESE (110°)9.2 mphMostly Cloudy
12:55 PM84.0 °F72.3 °F68 %29.84 in10.0 miEast (100°)6.9 mphMostly Cloudy
1:55 PM82.8 °F74.5 °F76 %29.82 in10.0 miESE (110°)13.8 mphClear
2:55 PM83.5 °F72.0 °F68 %29.80 in10.0 miEast (90°)8.1 mphPartly Cloudy
3:55 PM84.2 °F70.9 °F64 %29.80 in10.0 miEast (80°)9.2 mphScattered Clouds
4:55 PM81.3 °F72.9 °F75 %29.81 in10.0 miEast (90°)9.2 mphMostly Cloudy
5:55 PM80.6 °F73.2 °F78 %29.81 in10.0 miEast (100°)8.1 mphMostly Cloudy
6:55 PM79.0 °F72.5 °F80 %29.83 in10.0 miENE (70°)6.9 mphOvercast
7:55 PM78.6 °F73.4 °F84 %29.85 in10.0 miENE (60°)9.2 mphClear
8:55 PM79.3 °F74.1 °F84 %29.87 in10.0 miNNE (30°)6.9 mphScattered Clouds
9:02 PM78.8 °F75.2 °F89 %29.87 in10.0 miNorth (10°)6.9 mphMostly Cloudy
9:03 PM78.8 °F75.2 °F89 %29.87 in10.0 miNorth (10°)5.8 mphMostly Cloudy
9:14 PM78.8 °F75.2 °F89 %29.87 in10.0 miNNE (20°)5.8 mphMostly Cloudy
9:28 PM78.8 °F75.2 °F89 %29.88 in10.0 miNorth (10°)4.6 mphMostly Cloudy
9:42 PM78.8 °F75.2 °F89 %29.88 in10.0 miNNE (20°)3.5 mphMostly Cloudy
9:55 PM78.6 °F75.2 °F89 %29.88 in10.0 miNNE (30°)5.8 mphMostly Cloudy
9:59 PM78.8 °F73.4 °F83 %29.88 in10.0 miENE (60°)8.1 mphMostly Cloudy
10:03 PM78.8 °F73.4 °F83 %29.88 in10.0 miENE (60°)8.1 mphMostly Cloudy
10:27 PM78.8 °F73.4 °F83 %29.89 in10.0 miEast (80°)11.5 mphMostly Cloudy
10:55 PM78.3 °F72.9 °F83 %29.89 in10.0 miENE (60°)9.2 mphClear
11:55 PM78.4 °F73.0 °F83 %29.87 in10.0 miEast (80°)8.1 mphPartly Cloudy
Hourly data recorded from PGUA, located miles away from Pyga Beach, Guam







STORIES FROM OUR PARTNERS